Location: Batang Balui
(2.7000°N, 113.7833°E)
Time: 23:01:19
(UTC+00:00)

CZ-4B R/B - Pass Details

Date: 03 December 2021
Orbit: 378 x 440 km, 97.6° (Epoch: 27 January)

Event Time Altitude Azimuth Distance (km) Brightness Sun altitude
Exits shadow 10:53:01 12° 92° (E) 1,253 3.1 -9.9°
Maximum altitude 10:53:25 13° 101° (E) 1,240 3.1 -10.0°
Drops below altitude 10° 10:54:48 10° 129° (SE) 1,388 3.6 -10.3°
Sets 10:57:35 0° 160° (SSE) 2,244 5.0 -10.9°
